sat.trackr.live / text

‹ back to catalog

HAWK-3B

NORAD 48931 · 2021-059BE

PAYLOAD ACTIVE UNKNOWN

§ Identity

Operator
Country
US
Launch date
2021-06-30
Launch site
AFETR
Launch vehicle
Mass (kg)
RCS (m²)

Purposes: tech_demo

External: N2YO · Heavens-Above · Gunter

§ Orbital elements

Epoch: 2026-05-25T02:28:02.573184Z

Period
91.87 min
Inclination
97.6686°
Eccentricity
0.0005305
Mean motion
15.67474020 rev/d
Perigee alt
362.6 km
Apogee alt
369.7 km
Semi-major
6,744.3 km
B*
3.4250e-4
RAAN
339.6632°
Arg perigee
65.1445°
Mean anomaly
295.0366°
Rev number
27,423

§ Raw data

HAWK-3B1 48931U 21059BE  26145.10280756  .00037071  00000+0  34250-3 0  99932 48931  97.6686 339.6632 0005305  65.1445 295.0366 15.67474020274234

JSON: /api/v1/satellites/48931 · /tle

For live sub-satellite position, see the globe view (requires WebGL).

§ Visibility from observer

Set your observer location to see the next 7 days of passes ≥ 10°. The values pass through the URL so the page stays shareable.

No JS? Fill the form by hand. The geolocation button needs JavaScript.